This is the latest recevied weather packets stored in our database for station/object LU1MQF-13. If no packets are shown the sender has not sent any weather packets the latest 10 day(s).
| Time | Temp. | Humidity | Pressure | Rain* | Wind** | Luminosity | Snow |
|---|---|---|---|---|---|---|---|
| 1778222535 | 13.89° C | 25% | 938.2 hPa | - | - | - | - |
| 1778221635 | 13.89° C | 26% | 938.3 hPa | - | - | - | - |
| 1778220734 | 13.89° C | 25% | 938.8 hPa | - | - | - | - |
| 1778219835 | 13.89° C | 26% | 938.7 hPa | - | - | - | - |
| 1778218934 | 13.89° C | 26% | 938.8 hPa | - | - | - | - |
| 1778218035 | 15° C | 25% | 938.8 hPa | - | - | - | - |
| 1778217134 | 15° C | 25% | 938.9 hPa | - | - | - | - |
| 1778216234 | 15° C | 26% | 938.6 hPa | - | - | - | - |
| 1778215334 | 15° C | 26% | 938.9 hPa | - | - | - | - |
| 1778214434 | 15° C | 26% | 939.1 hPa | - | - | - | - |
| 1778213534 | 15° C | 27% | 939.2 hPa | - | - | - | - |
| 1778212635 | 16.11° C | 29% | 939.4 hPa | - | - | - | - |
| 1778211734 | 16.11° C | 33% | 939.2 hPa | - | - | - | - |
| 1778210834 | 16.11° C | 21% | 939.3 hPa | - | - | - | - |
| 1778209934 | 16.11° C | 21% | 939.5 hPa | - | - | - | - |
| 1778209034 | 16.11° C | 21% | 939.5 hPa | - | - | - | - |
| 1778208134 | 16.11° C | 22% | 939.6 hPa | - | - | - | - |
| 1778207234 | 17.22° C | 24% | 939.5 hPa | - | - | - | - |
| 1778206334 | 17.22° C | 25% | 939.3 hPa | - | - | - | - |
| 1778205434 | 17.22° C | 20% | 939.2 hPa | - | - | - | - |
| 1778204534 | 17.22° C | 20% | 938.7 hPa | - | - | - | - |
| 1778203634 | 17.22° C | 20% | 937.7 hPa | - | - | - | - |
| 1778202734 | 17.22° C | 20% | 937.9 hPa | - | - | - | - |
| 1778201834 | 17.22° C | 20% | 937.5 hPa | - | - | - | - |
| 1778200934 | 17.22° C | 19% | 937.4 hPa | - | - | - | - |
* Rain since midnight (hover to see other rain measurements)
** Current wind speed in m/s (hover to see current wind gust speed)